Location: Gand�
(15.0971°N, 12.6564°W)
Time: 15:02:51
(UTC+00:00)

Cosmos 1953 Rocket - Pass Details

Date: 07 August 2020
Orbit: 604 x 635 km, 82.5° (Epoch: 20 September)

Event Time Altitude Azimuth Distance (km) Brightness Sun altitude
Rises 05:40:23 0° 350° (N) 2,920 7.2 -13.2°
Reaches altitude 10° 05:42:39 10° 347° (NNW) 2,009 6.3 -12.7°
Maximum altitude 05:47:03 62° 267° (W) 707 3.6 -11.7°
Drops below altitude 10° 05:51:24 10° 186° (S) 1,991 5.9 -10.7°
Sets 05:53:38 0° 183° (S) 2,891 6.8 -10.2°
